User: anonymous   Login
Location: Dittelbrunn
(50.0738°N, 10.2196°E)
Time: 04:25:13
(UTC+00:00)
Language:

Cosmos 2082 Rocket - Orbit

View from above orbital plane
View from above orbital plane
View from above satellite
View from above satellite

Ground track
Ground track

The orbit data is extracted from the following two-line orbital elements,

1 20625U 90046B   20336.52128763 +.00000261 +00000-0 +16052-3 0  9998
2 20625 070.9997 017.5297 0014834 339.8398 020.2137 14.14658706576243
Epoch (UTC): 01 December 2020 12:30:39
Eccentricity: 0.0014834
inclination: 70.9997°
perigee height: 833 km
apogee height: 854 km
right ascension of ascending node: 17.5297°
argument of perigee: 339.8398°
revolutions per day: 14.14658706
mean anomaly at epoch: 20.2137°
orbit number at epoch: 57624

The dashed part of the orbit path shows where the satellite is in the earth's shadow,  

DLR